Location: Bayshore Village Mobile Home Park
(26.6945°N, 81.8642°W)
Time: 05:42:45
(UTC+00:00)

IUS-17 SRM-1 - Visible Passes

Search period start: 18 October 2021 00:00
Search period end: 28 October 2021 00:00
Orbit: 321 x 28082 km, 28.1° (Epoch: 16 October)

Date Brightness Start Highest point End Pass type
(mag) Time Alt. Az. Time Alt. Az. Time Alt. Az.
18 Oct 6.8 02:39:49 10° WNW 03:24:14 38° WSW 03:24:14 38° WSW visible
19 Oct 7.2 03:31:34 10° WNW 03:53:25 26° WSW 03:53:25 26° WSW visible
20 Oct 7.6 04:14:50 10° W 04:22:34 15° W 04:22:34 15° W visible
26 Oct 7.2 16:24:48 10° SW 23:14:51 90° NNE 23:36:20 10° ESE visible
